Location: Oberkirch
(48.5323°N, 8.0787°E)
Time: 02:44:43
(UTC+00:00)

AO-85 - Pass Details

Date: 15 March 2026
Orbit: 507 x 686 km, 64.8° (Epoch: 12 April)

Event Time Altitude Azimuth Distance (km) Brightness Sun altitude
Exits shadow 02:29:53 11° 110° (ESE) 1,723 ? -30.7°
Drops below altitude 10° 02:30:56 10° 95° (E) 1,774 ? -30.5°
Sets 02:34:38 0° 58° (ENE) 2,640 ? -30.0°
